Regional Weather Roundup
Issued by NWS

Home | Current Version | Previous Version | Text Only | Print | Product List | Glossary Off
Versions: 1 2 3 4 5 6 7 8 9 10 11 12 13 14 15 16 17 18 19 20 21 22 23 24 25 26 27 28 29 30 31 32 33 34 35 36 37 38 39 40 41 42 43 44 45 46 47 48 49 50

108
ASUS43 KMKX 052321
RWRWI

WISCONSIN REGIONAL WEATHER ROUNDUP
NATIONAL WEATHER SERVICE MILWAUKEE/SULLIVAN WI
500 PM CST FRI FEB 05 2016

NOTE: "FAIR" INDICATES FEW OR NO CLOUDS BELOW 12,000 FEET WITH NO
SIGNIFICANT WEATHER AND/OR OBSTRUCTIONS TO VISIBILITY.

WIZ001-002-006>008-014>016-023>028-060000-
NORTHWEST WISCONSIN

CITY           SKY/WX    TMP DP  RH WIND       PRES   REMARKS
SUPERIOR ARPT  CLOUDY    28  13  51 SW15      30.15F WCI  17
ASHLAND        CLOUDY    27  11  51 S12       30.17F WCI  17
HAYWARD        MOCLDY    23  10  57 S12       30.18S WCI  12
SIREN          CLEAR     25  13  59 S8        30.19S WCI  16
CUMBERLAND     CLEAR     18   9  68 S9        30.19F WCI   6
RICE LAKE      CLEAR     20  12  70 SE7       30.22F WCI  11
CHETEK         PTCLDY    22  11  64 S6        30.22F WCI  14
LADYSMITH      CLEAR     22  11  64 S7        30.23F WCI  13
EAU CLAIRE     MOCLDY    22  11  62 S7        30.25S WCI  13
MENOMONIE      CLOUDY    26  13  58 SE5       30.25F WCI  20
NEW RICHMOND   CLOUDY    24  15  67 S10       30.21F WCI  14
OSCEOLA        CLOUDY    26  17  67 S12       30.23F WCI  16
$$

WIZ003>005-009-010-017-018-060000-
NORTH CENTRAL WISCONSIN

CITY           SKY/WX    TMP DP  RH WIND       PRES   REMARKS
MANITOWISH WTR CLOUDY    24   8  51 SW7       30.15F WCI  15
ARBOR VITAE    CLOUDY    26  11  52 S7        30.16F WCI  19
WOODRUFF       CLOUDY    26  11  52 S7        30.16F WCI  19
RHINELANDER    CLOUDY    25   6  44 SW8       30.18F WCI  16
EAGLE RIVER    CLEAR     25   7  45 S3        30.16F
LAND O LAKES   CLOUDY    26   8  47 S5        30.16F WCI  20
PHILLIPS       CLOUDY    23  10  58 S7        30.18S WCI  15
TOMAHAWK       CLEAR     23   6  46 CALM      30.21S
MEDFORD        CLEAR     19  12  73 S6        30.22S WCI  11
MERRILL        PTCLDY    22  11  62 SW5       30.24F WCI  16
$$

WIZ029-030-035-036-043>047-060000-
CENTRAL WISCONSIN

CITY           SKY/WX    TMP DP  RH WIND       PRES   REMARKS
WAUSAU         CLOUDY    25  12  58 S6        30.23F WCI  18
MOSINEE        CLEAR     21  16  79 S5        30.26S WCI  15
MARSHFIELD     CLOUDY    24  13  62 CALM      30.24S
STEVENS POINT  CLOUDY    23  15  71 S7        30.27F WCI  15
WAUPACA        CLOUDY    27  16  64 SW3       30.29S
WAUTOMA        CLOUDY    27  18  69 CALM      30.31S
WISC RAPIDS    CLOUDY    24  14  65 S6        30.29S WCI  17
CAMP DOUGLAS   CLOUDY    24  18  77 S1        30.28F
$$

WIZ011>013-019>022-031-037>040-048>050-060000-
NORTHEAST WISCONSIN

CITY           SKY/WX    TMP DP  RH WIND       PRES   REMARKS
ANTIGO         CLEAR     20   9  63 SW7       30.22S WCI  11
SHAWANO        CLOUDY    29  15  54 CALM      30.28S
OCONTO         CLOUDY    26  14  62 SW3       30.29S
STURGEON BAY   CLOUDY    21  10  63 SW5       30.30F WCI  15
GREEN BAY      CLOUDY    23  15  71 S5        30.30R WCI  17
MANITOWOC      CLOUDY    24  16  71 W5        30.32S WCI  18
APPLETON       MOCLDY    25  14  63 SW8       30.27S WCI  16
CLINTONVILLE   CLOUDY    23  14  68 SW8       30.28S WCI  14
OSHKOSH        CLOUDY    25  15  66 SW7       30.30S WCI  17
$$

WIZ032>034-041-042-053>061-060000-
SOUTHWEST WISCONSIN

CITY           SKY/WX    TMP DP  RH WIND       PRES   REMARKS
LA CROSSE      CLOUDY    26  15  63 S12       30.29F WCI  16
SPARTA         CLOUDY    26  17  68 S3        30.30F
VIROQUA        CLOUDY    23  15  71 CALM      30.27F
BOSCOBEL       CLOUDY    28  16  60 S5        30.33F WCI  23
PRAIRIE DU CHI CLOUDY    27  15  61 S3        30.32F
PLATTEVILLE    CLOUDY    27  21  80 S6        30.31F WCI  20
$$

WIZ056-057-062-063-064-067-068-060000-
SOUTH CENTRAL WISCONSIN

CITY           SKY/WX    TMP DP  RH WIND       PRES   REMARKS
REEDSBURG      CLOUDY    27  16  62 SW6       30.30F WCI  20
BARABOO/DELLS  CLOUDY    27  15  62 SW3       30.30S
LONE ROCK      CLOUDY    26  15  63 SW7       30.33F WCI  18
MINERAL POINT  CLOUDY    28  19  69 CALM      30.30F
MADISON        CLOUDY    28  16  60 SW5       30.32S WCI  23
MIDDLETON      MOCLDY    29  17  59 SW5       30.32F WCI  24
WATERTOWN      CLOUDY    27  18  67 CALM      30.32S
MONROE         CLOUDY    28  19  69 CALM      30.31F
JANESVILLE     MOCLDY    30  19  64 W6        30.34S WCI  24
$$

WIZ051-052-058>065-066-070>072-060000-
SOUTHEAST WISCONSIN

CITY           SKY/WX    TMP DP  RH WIND       PRES   REMARKS
MILWAUKEE      CLOUDY    30  13  49 W5        30.34R WCI  25
WAUKESHA       CLEAR     27  14  59 W7        30.34R WCI  19
MILWAUKEE/TIMM CLEAR     28  10  47 W8        30.34R WCI  20
RACINE         CLOUDY    31  14  49 W6        30.35S WCI  25
BURLINGTON     MOCLDY    28  17  66 W6        30.34S WCI  21
KENOSHA        CLOUDY    30  17  58 W8        30.34R WCI  22
FOND DU LAC    CLOUDY    25  15  66 SW6       30.31F WCI  18
SHEBOYGAN      CLOUDY    25  15  66 W9        30.32R WCI  15
WEST BEND      CLOUDY    27  16  63 CALM      30.32R
JUNEAU         CLOUDY    23  15  73 SW5       30.33S WCI  17
$$

LSZ147-162-060000-
LAKE SUPERIOR

STATION/POSITION TIME  TEMP    WIND        PRES    WAVE
                       AIR SEA DIR/SP/G            HT/PER
                 (UTC) (F)     (DEG/KT/KT) (MB)    (FT/S)
DEVILS ISLAND    2300   27     200/  8/ 10 1021.6F
SAXON HARBOR     2240   30                 1021.0F
$$

LMZ867-665-643>646-060000-
LAKE MICHIGAN

STATION/POSITION TIME  TEMP    WIND        PRES    WAVE
                       AIR SEA DIR/SP/G            HT/PER
                 (UTC) (F)     (DEG/KT/KT) (MB)    (FT/S)
CHAMBERS ISLAND  2240   22     180/  5/  9 1025.4F
NORTHPORT PIER   2300   23     200/  2/ 13 1025.1F
ALGOMA LAKESHORE 2211          270/  6/  9   N/A
KEWAUNEE LAKESHO 2200   25     270/  3/  7 1025.2S
SHEBOYGAN LAKESH 2300   27     260/  7/  8 1028.1R
PORT WASHINGTON  2200   30     290/  5/  8 1027.8R
MILWAUKEE LAKESH 2210   31     280/  9/ 10   N/A
KENOSHA   LAKESH 2300   31     260/  8/  9 1027.4R
$$

TC  - TEMPERATURE IN CELSIUS
VSB - VISIBILITY IN STATUTE MILES
WCI - WIND CHILL INDEX
HX  - HEAT INDEX





USA.gov is the U.S. government's official web portal to all federal, state and local government web resources and services.